PAGEOS 1 DEB, 2256

Orbit data source: Space-Track

PAGEOS 1 DEB, 2256 is space debris in LEO originally from a launch on Fri, 24 Jun 1966 UTC launched from the Air Force Western Test Range (AFWTR). Debris objects in space refer to the collection of defunct objects orbiting the Earth. Examples of debris include non-operational satellites, rocket bodies, and fragments generated from explosions, collisions, or faulty payload assembly.

Loading next visibility...
Identifier
2256, 1966-056C
Orbit
LEO
Country
Flag of USUS
Related business
Manufacturer
Goodyear
Mission
Spacecraft
Bus & Motor
ECHO CANISTER, Unknown motor
Mass
9 kg wet, 9 kg dry
Launch date (UTC)
1966-06-24 (59 years ago)
Launch vehicle
Unknown
Launch site
Air Force Western Test Range (AFWTR)
Object type
Payload
Rocket body
Debris
Shape & HBR
Unknown
Radar Cross Section
Large (>1 m²)

Expand to show TLE details & history
Last TLE update: 11 hours ago

TLE from 11 hours ago
0 PAGEOS 1 DEB
1  2256U 66056C   25295.04634625 -.00000059  00000-0 -59571-1 0  9995
2  2256  86.9437 180.4077 0026007   8.2499 351.8730  7.93549021719585
Epoch: 2025-10-22T01:06Z
TLE epoch observation values (Epoch: 2025-10-22T01:06:44.316Z)
Latitude
-0.00011°
Longitude
132.99747°
Altitude
4,214.016 km
Speed
6.143 km/s
True Right ascension
12h 01m 37s
True Declination
0° 00' 00"
Sunlit
Object was in daylight at epoch
Visualization orbit readout
Latitude
Unknown
Longitude
Unknown
Altitude
Unknown
Speed
Unknown
Apparent Right ascension
Unknown
Apparent Declination
Unknown
Sunlit
N/A
Visualization observer readout
Local Sidereal Time
07:04:37
Azimuth
Unknown
Elevation
Unknown
Doppler factor
Unknown
Orbital elements
Apogee altitude
4,264.849 km
Perigee altitude
4,209.634 km
Semi-major axis
10,615.379 km
Eccentricity
0.0026
Inclination
86.9437°
RAAN
180.4077°
Arg. of periapsis
8.2499°
True anomaly
351.83073°
Mean anomaly
351.873°
Eccentric anomaly
351.85188°
Mean motion
1.98445 °/min
Orbital period
181.41 mins
BSTAR
-0.059571
Loading maneuver chart data...
Computing Atmospheric mass density...

Documentation

Showing up to 5 results
|